Tracking 29892 objects as of 21-Nov-2024
HD Live streaming from Space Station
objects crossing your sky now

STARLINK-2480

Track STARLINK-2480 now!
10-day predictions
STARLINK-2480 is classified as:


NORAD ID: 48137
Int'l Code: 2021-027AX
Perigee: 553.6 km
Apogee: 555.1 km
Inclination: 53.1 °
Period: 95.6 minutes
Semi major axis: 6925 km
RCS: Unknown
Launch date: April 7, 2021
Source: United States (US)
Launch site: AIR FORCE EASTERN TEST RANGE (AFETR)
Your satellite tracking list
Your tracking list is empty




NASA's NSSDC Master Catalog

Two Line Element Set (TLE):
1 48137U 21027AX  24325.83827775  .00000369  00000-0  43676-4 0  9996
2 48137  53.0539 118.7904 0001060  91.4264 268.6846 15.06407015200879
Source of the keplerian elements: AFSPC